When you browse on this site, cookies collect data to enhance your experience and personalize the content and advertising you see.
Visit our Privacy Policy to learn more. By continuing to use the site, you agree to this use of cookies and data.
  • Em Portugal
  • Lista de países
  • Para 7 dias
  • Temperatura da água
  • Mapas de satélite
  • Mapa do tempo
  • Widgets de tempo
  • user-avatar
    Iniciar Sessão

    Previsão horária em Kuklin

    Hoje, 21 Março, Quinta-feira

    Tempo Temperatura Precipitação Vento Pressão Humidade
    00:00 +5°C° 0 mm 5 m/s 756 mmHg 69%
    01:00 +5°C° 0 mm 5 m/s 756 mmHg 76%
    02:00 +5°C° 0 mm 4 m/s 756 mmHg 81%
    03:00 +5°C° 0 mm 4 m/s 756 mmHg 86%
    04:00 +5°C° 0 mm 4 m/s 756 mmHg 91%
    05:00 +5°C° 0 mm 4 m/s 756 mmHg 91%
    06:00 +5°C° 0 mm 4 m/s 756 mmHg 92%
    07:00 +5°C° 0 mm 4 m/s 756 mmHg 91%
    08:00 +6°C° 0 mm 4 m/s 756 mmHg 83%
    09:00 +7°C° 0 mm 5 m/s 757 mmHg 76%
    10:00 +8°C° 0 mm 5 m/s 757 mmHg 69%
    11:00 +9°C° 0 mm 5 m/s 757 mmHg 66%
    12:00 +10°C° 0 mm 5 m/s 757 mmHg 63%
    13:00 +12°C° 0 mm 4 m/s 757 mmHg 60%
    14:00 +10°C° 0 mm 5 m/s 756 mmHg 62%
    15:00 +10°C° 0 mm 5 m/s 756 mmHg 64%
    16:00 +10°C° 0 mm 5 m/s 756 mmHg 66%
    17:00 +10°C° 0 mm 5 m/s 756 mmHg 71%
    18:00 +9°C° 0 mm 5 m/s 756 mmHg 75%
    19:00 +9°C° 0 mm 5 m/s 756 mmHg 80%
    20:00 +9°C° 0 mm 5 m/s 756 mmHg 82%
    21:00 +9°C° 0 mm 5 m/s 755 mmHg 84%
    22:00 +9°C° 0 mm 6 m/s 755 mmHg 85%
    23:00 +9°C° 0 mm 6 m/s 755 mmHg 86%

    Amanhã, 22 Março, Sexta-feira

    Tempo Temperatura Precipitação Vento Pressão Humidade
    00:00 +8°C° 0 mm 5 m/s 755 mmHg 86%
    01:00 +8°C° 0 mm 5 m/s 755 mmHg 87%
    02:00 +8°C° 0 mm 5 m/s 756 mmHg 87%
    03:00 +8°C° 0 mm 5 m/s 756 mmHg 88%
    04:00 +7°C° 0 mm 5 m/s 756 mmHg 88%
    05:00 +7°C° 0 mm 4 m/s 756 mmHg 88%
    06:00 +7°C° 0 mm 4 m/s 757 mmHg 88%
    07:00 +7°C° 0 mm 4 m/s 757 mmHg 88%
    08:00 +8°C° 0 mm 4 m/s 758 mmHg 83%
    09:00 +10°C° 0 mm 4 m/s 758 mmHg 78%
    10:00 +10°C° 0 mm 4 m/s 758 mmHg 73%
    11:00 +11°C° 0 mm 4 m/s 759 mmHg 64%
    12:00 +12°C° 0 mm 4 m/s 759 mmHg 55%
    13:00 +12°C° 0 mm 3 m/s 759 mmHg 45%
    14:00 +12°C° 0 mm 3 m/s 759 mmHg 42%
    15:00 +12°C° 0 mm 3 m/s 759 mmHg 39%
    16:00 +12°C° 0 mm 3 m/s 758 mmHg 36%
    17:00 +10°C° 0 mm 3 m/s 758 mmHg 39%
    18:00 +8°C° 0 mm 2 m/s 758 mmHg 42%
    19:00 +7°C° 0 mm 2 m/s 758 mmHg 45%
    20:00 +6°C° 0 mm 2 m/s 758 mmHg 49%
    21:00 +5°C° 0 mm 2 m/s 758 mmHg 52%
    22:00 +4°C° 0 mm 2 m/s 758 mmHg 55%
    23:00 +4°C° 0 mm 2 m/s 758 mmHg 57%

    Depois de amanhã, 23 Março, Sábado

    Tempo Temperatura Precipitação Vento Pressão Humidade
    00:00 +3°C° 0 mm 2 m/s 758 mmHg 58%
    01:00 +3°C° 0 mm 2 m/s 758 mmHg 60%
    02:00 +3°C° 0 mm 2 m/s 757 mmHg 61%
    03:00 +3°C° 0 mm 2 m/s 757 mmHg 62%
    04:00 +2°C° 0 mm 2 m/s 756 mmHg 63%
    05:00 +2°C° 0 mm 3 m/s 756 mmHg 61%
    06:00 +2°C° 0 mm 3 m/s 756 mmHg 60%
    07:00 +3°C° 0 mm 3 m/s 756 mmHg 59%
    08:00 +5°C° 0 mm 3 m/s 755 mmHg 60%
    09:00 +8°C° 0 mm 3 m/s 755 mmHg 60%
    10:00 +10°C° 0 mm 4 m/s 755 mmHg 61%
    11:00 +11°C° 0 mm 4 m/s 754 mmHg 61%
    12:00 +13°C° 0 mm 4 m/s 754 mmHg 61%
    13:00 +14°C° 0 mm 4 m/s 753 mmHg 61%
    14:00 +14°C° 0 mm 4 m/s 753 mmHg 61%
    15:00 +15°C° 0 mm 4 m/s 752 mmHg 61%
    16:00 +15°C° 0 mm 4 m/s 751 mmHg 62%
    17:00 +14°C° 0.1 mm 4 m/s 751 mmHg 69%
    18:00 +12°C° 0.1 mm 3 m/s 751 mmHg 77%
    19:00 +11°C° 0.1 mm 3 m/s 751 mmHg 85%
    20:00 +10°C° 0.1 mm 3 m/s 752 mmHg 86%
    21:00 +8°C° 0.1 mm 4 m/s 752 mmHg 87%
    22:00 +7°C° 0.1 mm 5 m/s 752 mmHg 89%
    23:00 +6°C° 0 mm 5 m/s 752 mmHg 82%

    24 Março, Domingo

    Tempo Temperatura Precipitação Vento Pressão Humidade
    00:00 +5°C° 0 mm 5 m/s 752 mmHg 75%
    01:00 +3°C° 0 mm 5 m/s 753 mmHg 68%
    02:00 +3°C° 0 mm 4 m/s 753 mmHg 71%
    03:00 +1°C° 0 mm 4 m/s 753 mmHg 73%
    04:00 +1°C° 0 mm 4 m/s 753 mmHg 76%
    05:00 +1°C° 0 mm 4 m/s 753 mmHg 76%
    06:00 +1°C° 0 mm 4 m/s 753 mmHg 75%
    07:00 +1°C° 0 mm 4 m/s 754 mmHg 74%
    08:00 +3°C° 0 mm 4 m/s 754 mmHg 69%
    09:00 +4°C° 0 mm 4 m/s 754 mmHg 63%
    10:00 +5°C° 0 mm 4 m/s 754 mmHg 58%
    11:00 +6°C° 0 mm 5 m/s 754 mmHg 54%
    12:00 +7°C° 0 mm 5 m/s 754 mmHg 51%
    13:00 +7°C° 0 mm 5 m/s 754 mmHg 48%
    14:00 +7°C° 0 mm 5 m/s 753 mmHg 49%
    15:00 +7°C° 0 mm 5 m/s 753 mmHg 51%
    16:00 +6°C° 0 mm 5 m/s 753 mmHg 52%
    17:00 +5°C° 0 mm 4 m/s 753 mmHg 58%
    18:00 +4°C° 0 mm 3 m/s 753 mmHg 63%
    19:00 +4°C° 0 mm 2 m/s 753 mmHg 68%
    20:00 +3°C° 0 mm 2 m/s 753 mmHg 71%
    21:00 +2°C° 0 mm 2 m/s 753 mmHg 74%
    22:00 +2°C° 0 mm 2 m/s 753 mmHg 78%
    23:00 +2°C° 0 mm 2 m/s 753 mmHg 79%

    25 Março, Segunda-feira

    Tempo Temperatura Precipitação Vento Pressão Humidade
    00:00 0°C° 0 mm 3 m/s 752 mmHg 81%
    01:00 0°C° 0 mm 3 m/s 752 mmHg 82%
    02:00 0°C° 0 mm 3 m/s 752 mmHg 85%
    03:00 0°C° 0 mm 3 m/s 751 mmHg 87%
    04:00 -1°C° 0 mm 3 m/s 751 mmHg 89%
    05:00 -1°C° 0 mm 4 m/s 751 mmHg 86%
    06:00 0°C° 0 mm 5 m/s 750 mmHg 83%
    07:00 0°C° 0 mm 5 m/s 750 mmHg 80%
    08:00 +1°C° 0 mm 6 m/s 749 mmHg 72%
    09:00 +3°C° 0 mm 7 m/s 749 mmHg 64%
    10:00 +4°C° 0 mm 8 m/s 748 mmHg 56%
    11:00 +4°C° 0.3 mm 8 m/s 747 mmHg 61%
    12:00 +4°C° 0.3 mm 8 m/s 747 mmHg 65%
    13:00 +2°C° 0.3 mm 8 m/s 746 mmHg 70%
    14:00 +2°C° 0.5 mm 8 m/s 746 mmHg 68%
    15:00 +2°C° 0.5 mm 8 m/s 745 mmHg 67%
    16:00 +3°C° 0.5 mm 7 m/s 745 mmHg 65%
    17:00 +2°C° 0.1 mm 6 m/s 745 mmHg 67%
    18:00 +1°C° 0.1 mm 5 m/s 745 mmHg 70%
    19:00 0°C° 0.1 mm 4 m/s 745 mmHg 73%
    20:00 0°C° 0 mm 4 m/s 745 mmHg 75%
    21:00 0°C° 0 mm 4 m/s 745 mmHg 77%
    22:00 -1°C° 0 mm 4 m/s 746 mmHg 79%
    23:00 0°C° 0.3 mm 5 m/s 746 mmHg 81%

    26 Março, Terça-feira

    Tempo Temperatura Precipitação Vento Pressão Humidade
    00:00 0°C° 0.3 mm 5 m/s 746 mmHg 84%
    01:00 -1°C° 0.3 mm 6 m/s 746 mmHg 87%
    02:00 -1°C° 0 mm 5 m/s 747 mmHg 88%
    03:00 -1°C° 0 mm 5 m/s 748 mmHg 88%
    04:00 -1°C° 0 mm 5 m/s 748 mmHg 89%
    05:00 -1°C° 0 mm 5 m/s 749 mmHg 88%
    06:00 0°C° 0 mm 5 m/s 750 mmHg 87%
    07:00 -1°C° 0 mm 6 m/s 751 mmHg 86%
    08:00 +2°C° 0 mm 6 m/s 752 mmHg 79%
    09:00 +3°C° 0 mm 6 m/s 753 mmHg 73%
    10:00 +4°C° 0 mm 6 m/s 753 mmHg 67%
    11:00 +4°C° 0 mm 6 m/s 753 mmHg 65%
    12:00 +5°C° 0 mm 6 m/s 754 mmHg 64%
    13:00 +5°C° 0 mm 6 m/s 754 mmHg 62%
    14:00 +5°C° 0 mm 6 m/s 754 mmHg 63%
    15:00 +4°C° 0 mm 6 m/s 754 mmHg 65%
    16:00 +5°C° 0 mm 5 m/s 753 mmHg 66%
    17:00 +4°C° 0 mm 4 m/s 754 mmHg 71%
    18:00 +3°C° 0 mm 3 m/s 754 mmHg 76%
    19:00 +3°C° 0 mm 2 m/s 754 mmHg 80%
    20:00 +3°C° 0 mm 2 m/s 754 mmHg 79%
    21:00 +2°C° 0 mm 2 m/s 754 mmHg 79%
    22:00 +1°C° 0 mm 3 m/s 753 mmHg 78%
    23:00 +1°C° 0 mm 3 m/s 753 mmHg 76%
    Mostrar mais